Location: Munkebjergskolens Observatorium
(55.3864°N, 10.3987°E)
Time: 01:12:09
(UTC+01:00)

ISS - Pass Details

Date: 26 January 2026
Orbit: 413 x 429 km, 51.6° (Epoch: 11 February)

Event Time Altitude Azimuth Distance (km) Brightness Sun altitude
Rises 19:33:25 0° 272° (W) 2,368 1.5 -24.0°
Reaches altitude 10° 19:36:36 10° 239° (WSW) 1,505 -0.2 -24.5°
Maximum altitude 19:37:54 12° 217° (SW) 1,399 -0.7 -24.6°
Enters shadow 19:38:39 11° 203° (SSW) 1,435 -0.8 -24.7°
